Hourly Weather Glasgow

Today, 7 August, Friday

Time Temperature Precipitation Wind Pressure Humidity
00:00 +14°C° 0 mm 4 mps 759 mmHg 96%
01:00 +14°C° 0 mm 4 mps 759 mmHg 95%
02:00 +14°C° 0 mm 4 mps 759 mmHg 95%
03:00 +14°C° 0 mm 4 mps 759 mmHg 95%
04:00 +14°C° 0 mm 4 mps 759 mmHg 94%
05:00 +14°C° 0 mm 4 mps 759 mmHg 92%
06:00 +15°C° 0 mm 5 mps 759 mmHg 91%
07:00 +16°C° 0 mm 5 mps 760 mmHg 87%
08:00 +17°C° 0 mm 5 mps 760 mmHg 82%
09:00 +20°C° 0 mm 5 mps 760 mmHg 78%
10:00 +20°C° 0 mm 6 mps 760 mmHg 76%
11:00 +21°C° 0 mm 7 mps 760 mmHg 75%
12:00 +21°C° 0 mm 7 mps 760 mmHg 73%
13:00 +22°C° 0 mm 7 mps 760 mmHg 72%
14:00 +22°C° 0 mm 7 mps 759 mmHg 72%
15:00 +22°C° 0 mm 6 mps 759 mmHg 72%
16:00 +22°C° 0 mm 6 mps 759 mmHg 75%
17:00 +22°C° 0 mm 6 mps 759 mmHg 77%
18:00 +21°C° 0 mm 5 mps 759 mmHg 80%
19:00 +20°C° 0.3 mm 4 mps 760 mmHg 83%
20:00 +19°C° 0.3 mm 3 mps 761 mmHg 86%
21:00 +18°C° 0.3 mm 3 mps 761 mmHg 89%
22:00 +17°C° 0.3 mm 3 mps 761 mmHg 90%
23:00 +15°C° 0.3 mm 4 mps 762 mmHg 91%

Tomorrow, 8 August, Saturday

Time Temperature Precipitation Wind Pressure Humidity
00:00 +14°C° 0.3 mm 5 mps 762 mmHg 92%
01:00 +13°C° 0 mm 4 mps 763 mmHg 92%
02:00 +13°C° 0 mm 4 mps 763 mmHg 91%
03:00 +13°C° 0 mm 3 mps 764 mmHg 90%
04:00 +13°C° 0 mm 3 mps 764 mmHg 90%
05:00 +14°C° 0 mm 2 mps 764 mmHg 89%
06:00 +14°C° 0 mm 2 mps 765 mmHg 88%
07:00 +15°C° 0 mm 1 mps 765 mmHg 81%
08:00 +18°C° 0 mm 1 mps 766 mmHg 75%
09:00 +19°C° 0 mm 1 mps 766 mmHg 68%
10:00 +19°C° 0 mm 1 mps 766 mmHg 68%
11:00 +19°C° 0 mm 2 mps 767 mmHg 67%
12:00 +19°C° 0 mm 2 mps 767 mmHg 66%
13:00 +19°C° 0 mm 2 mps 767 mmHg 68%
14:00 +19°C° 0 mm 3 mps 767 mmHg 69%
15:00 +19°C° 0 mm 3 mps 767 mmHg 71%
16:00 +18°C° 0 mm 3 mps 767 mmHg 73%
17:00 +17°C° 0 mm 3 mps 767 mmHg 75%
18:00 +16°C° 0 mm 3 mps 767 mmHg 77%
19:00 +15°C° 0 mm 2 mps 768 mmHg 80%
20:00 +14°C° 0 mm 2 mps 768 mmHg 84%
21:00 +13°C° 0 mm 2 mps 768 mmHg 87%
22:00 +12°C° 0 mm 1 mps 768 mmHg 87%
23:00 +12°C° 0 mm 1 mps 768 mmHg 86%

Day after tomorrow, 9 August, Sunday

Time Temperature Precipitation Wind Pressure Humidity
00:00 +11°C° 0 mm 1 mps 768 mmHg 86%
01:00 +11°C° 0 mm 1 mps 768 mmHg 86%
02:00 +11°C° 0 mm 1 mps 768 mmHg 86%
03:00 +11°C° 0 mm 1 mps 768 mmHg 85%
04:00 +11°C° 0 mm 1 mps 768 mmHg 85%
05:00 +12°C° 0 mm 1 mps 767 mmHg 84%
06:00 +13°C° 0 mm 1 mps 767 mmHg 83%
07:00 +14°C° 0 mm 2 mps 767 mmHg 78%
08:00 +15°C° 0 mm 2 mps 767 mmHg 73%
09:00 +17°C° 0 mm 3 mps 767 mmHg 68%
10:00 +17°C° 0 mm 3 mps 767 mmHg 67%
11:00 +17°C° 0 mm 3 mps 767 mmHg 66%
12:00 +18°C° 0 mm 4 mps 767 mmHg 64%
13:00 +18°C° 0 mm 4 mps 766 mmHg 65%
14:00 +17°C° 0 mm 4 mps 766 mmHg 66%
15:00 +17°C° 0 mm 4 mps 766 mmHg 66%
16:00 +16°C° 0 mm 3 mps 766 mmHg 71%
17:00 +16°C° 0 mm 3 mps 766 mmHg 76%
18:00 +14°C° 0 mm 3 mps 766 mmHg 81%
19:00 +13°C° 0 mm 3 mps 766 mmHg 83%
20:00 +13°C° 0 mm 3 mps 766 mmHg 86%
21:00 +12°C° 0 mm 3 mps 766 mmHg 88%
22:00 +12°C° 0 mm 3 mps 765 mmHg 89%
23:00 +13°C° 0 mm 2 mps 765 mmHg 90%

10 August, Monday

Time Temperature Precipitation Wind Pressure Humidity
00:00 +13°C° 0 mm 2 mps 765 mmHg 90%
01:00 +13°C° 0 mm 2 mps 765 mmHg 90%
02:00 +13°C° 0 mm 2 mps 764 mmHg 89%
03:00 +12°C° 0 mm 2 mps 764 mmHg 88%
04:00 +13°C° 0 mm 2 mps 764 mmHg 88%
05:00 +13°C° 0 mm 2 mps 764 mmHg 88%
06:00 +14°C° 0 mm 2 mps 764 mmHg 88%
07:00 +14°C° 0 mm 3 mps 764 mmHg 83%
08:00 +14°C° 0 mm 3 mps 763 mmHg 79%
09:00 +16°C° 0 mm 3 mps 763 mmHg 75%
10:00 +17°C° 0.1 mm 3 mps 763 mmHg 74%
11:00 +17°C° 0.1 mm 3 mps 763 mmHg 73%
12:00 +17°C° 0.1 mm 3 mps 763 mmHg 72%
13:00 +17°C° 0 mm 3 mps 763 mmHg 75%
14:00 +16°C° 0 mm 3 mps 762 mmHg 78%
15:00 +16°C° 0 mm 3 mps 762 mmHg 81%
16:00 +14°C° 0.3 mm 3 mps 762 mmHg 84%
17:00 +14°C° 0.3 mm 3 mps 762 mmHg 86%
18:00 +14°C° 0.3 mm 3 mps 762 mmHg 89%
19:00 +14°C° 0.4 mm 3 mps 762 mmHg 91%
20:00 +13°C° 0.4 mm 3 mps 762 mmHg 94%
21:00 +13°C° 0.4 mm 4 mps 762 mmHg 97%
22:00 +13°C° 0.1 mm 3 mps 762 mmHg 96%
23:00 +13°C° 0.1 mm 3 mps 762 mmHg 96%

11 August, Tuesday

Time Temperature Precipitation Wind Pressure Humidity
00:00 +13°C° 0.1 mm 3 mps 761 mmHg 96%
01:00 +13°C° 0 mm 3 mps 761 mmHg 95%
02:00 +13°C° 0 mm 3 mps 761 mmHg 95%
03:00 +14°C° 0 mm 2 mps 761 mmHg 95%
04:00 +14°C° 0 mm 2 mps 760 mmHg 94%
05:00 +15°C° 0 mm 2 mps 760 mmHg 94%
06:00 +14°C° 0 mm 3 mps 760 mmHg 93%
07:00 +16°C° 0 mm 3 mps 760 mmHg 92%
08:00 +16°C° 0 mm 3 mps 760 mmHg 90%
09:00 +17°C° 0 mm 3 mps 761 mmHg 88%
10:00 +17°C° 0 mm 2 mps 761 mmHg 87%
11:00 +18°C° 0 mm 2 mps 761 mmHg 87%
12:00 +18°C° 0 mm 2 mps 761 mmHg 86%
13:00 +19°C° 0 mm 2 mps 761 mmHg 84%
14:00 +19°C° 0 mm 2 mps 760 mmHg 82%
15:00 +20°C° 0 mm 2 mps 760 mmHg 81%
16:00 +20°C° 0 mm 2 mps 760 mmHg 82%
17:00 +19°C° 0 mm 2 mps 760 mmHg 83%
18:00 +19°C° 0 mm 2 mps 760 mmHg 85%
19:00 +18°C° 0 mm 2 mps 760 mmHg 88%
20:00 +17°C° 0 mm 2 mps 760 mmHg 92%
21:00 +16°C° 0 mm 2 mps 761 mmHg 95%
22:00 +14°C° 0 mm 3 mps 761 mmHg 96%
23:00 +14°C° 0 mm 3 mps 761 mmHg 96%

12 August, Wednesday

Time Temperature Precipitation Wind Pressure Humidity
00:00 +13°C° 0 mm 3 mps 761 mmHg 97%
01:00 +13°C° 0 mm 3 mps 761 mmHg 97%
02:00 +13°C° 0 mm 3 mps 761 mmHg 97%
03:00 +12°C° 0 mm 3 mps 761 mmHg 97%
04:00 +13°C° 0 mm 3 mps 761 mmHg 96%
05:00 +13°C° 0 mm 3 mps 761 mmHg 95%
06:00 +14°C° 0 mm 3 mps 761 mmHg 94%
07:00 +16°C° 0 mm 3 mps 761 mmHg 91%
08:00 +17°C° 0 mm 3 mps 761 mmHg 88%
09:00 +17°C° 0 mm 3 mps 762 mmHg 85%
10:00 +18°C° 0 mm 3 mps 762 mmHg 82%
11:00 +18°C° 0 mm 4 mps 762 mmHg 80%
12:00 +19°C° 0 mm 4 mps 762 mmHg 78%
13:00 +19°C° 0 mm 4 mps 762 mmHg 78%
14:00 +19°C° 0 mm 5 mps 762 mmHg 77%
15:00 +19°C° 0 mm 5 mps 762 mmHg 76%
16:00 +17°C° 0 mm 5 mps 762 mmHg 78%
17:00 +16°C° 0 mm 5 mps 762 mmHg 80%
18:00 +16°C° 0 mm 5 mps 762 mmHg 81%
19:00 +14°C° 0 mm 5 mps 763 mmHg 86%
20:00 +13°C° 0 mm 5 mps 763 mmHg 90%
21:00 +12°C° 0 mm 4 mps 763 mmHg 94%
22:00 +12°C° 0 mm 4 mps 763 mmHg 95%
23:00 +11°C° 0 mm 4 mps 763 mmHg 95%
Show more